Time,TemperatureF,DewpointF,PressureIn,WindDirection,WindDirectionDegrees,WindSpeedMPH,WindSpeedGustMPH,Humidity,HourlyPrecipIn,Conditions,Clouds,dailyrainin,SoftwareType,DateUTC
2013-05-16 00:01:00,72.5,57.8,29.84,SW,214,5.0,9.0,60,0.00,,,0.00,Wunderground v.1.15,2013-05-16 04:01:00,
2013-05-16 00:11:00,72.5,58.3,29.85,SSW,202,5.0,5.0,61,0.00,,,0.00,Wunderground v.1.15,2013-05-16 04:11:00,
2013-05-16 00:21:00,72.5,58.3,29.84,South,190,5.0,5.0,61,0.00,,,0.00,Wunderground v.1.15,2013-05-16 04:21:00,
2013-05-16 00:31:00,72.4,58.2,29.84,SW,216,4.0,7.0,61,0.00,,,0.00,Wunderground v.1.15,2013-05-16 04:31:00,
2013-05-16 00:41:00,72.3,58.5,29.85,SW,215,5.0,5.0,62,0.00,,,0.00,Wunderground v.1.15,2013-05-16 04:41:00,
2013-05-16 00:51:00,72.0,58.7,29.85,SW,221,5.0,5.0,63,0.00,,,0.00,Wunderground v.1.15,2013-05-16 04:51:00,
2013-05-16 01:01:00,71.9,58.6,29.85,WSW,238,5.0,8.0,63,0.00,,,0.00,Wunderground v.1.15,2013-05-16 05:01:00,
2013-05-16 01:11:00,71.6,58.8,29.85,West,269,4.0,4.0,64,0.00,,,0.00,Wunderground v.1.15,2013-05-16 05:11:00,
2013-05-16 01:21:00,71.4,58.6,29.85,WSW,246,5.0,5.0,64,0.00,,,0.00,Wunderground v.1.15,2013-05-16 05:21:00,
2013-05-16 01:31:00,71.3,58.9,29.84,West,259,5.0,6.0,65,0.00,,,0.00,Wunderground v.1.15,2013-05-16 05:31:00,
2013-05-16 01:41:00,71.2,59.3,29.85,SW,215,5.0,6.0,66,0.00,,,0.00,Wunderground v.1.15,2013-05-16 05:41:00,
2013-05-16 01:51:00,70.8,59.3,29.86,SW,227,3.0,3.0,67,0.00,,,0.00,Wunderground v.1.15,2013-05-16 05:51:00,
2013-05-16 02:01:00,70.4,59.3,29.86,West,265,4.0,10.0,68,0.00,,,0.00,Wunderground v.1.15,2013-05-16 06:01:00,
2013-05-16 02:11:00,70.0,59.4,29.85,WSW,242,3.0,3.0,69,0.00,,,0.00,Wunderground v.1.15,2013-05-16 06:11:00,
2013-05-16 02:21:00,70.1,59.5,29.85,WSW,241,5.0,9.0,69,0.00,,,0.00,Wunderground v.1.15,2013-05-16 06:21:00,
2013-05-16 02:31:00,69.9,59.7,29.84,SSW,203,4.0,5.0,70,0.00,,,0.00,Wunderground v.1.15,2013-05-16 06:31:00,
2013-05-16 02:41:00,69.7,59.5,29.84,WSW,255,4.0,5.0,70,0.00,,,0.00,Wunderground v.1.15,2013-05-16 06:41:00,
2013-05-16 02:51:00,69.6,59.8,29.84,SW,215,5.0,5.0,71,0.00,,,0.00,Wunderground v.1.15,2013-05-16 06:51:00,
2013-05-16 03:01:00,69.5,59.7,29.84,West,259,4.0,4.0,71,0.00,,,0.00,Wunderground v.1.15,2013-05-16 07:01:00,
2013-05-16 03:11:00,69.3,59.9,29.84,SSW,193,3.0,6.0,72,0.00,,,0.00,Wunderground v.1.15,2013-05-16 07:11:00,
2013-05-16 03:21:00,69.2,59.8,29.84,SSW,211,3.0,3.0,72,0.00,,,0.00,Wunderground v.1.15,2013-05-16 07:21:00,
2013-05-16 03:31:00,69.1,60.1,29.84,West,269,4.0,6.0,73,0.00,,,0.00,Wunderground v.1.15,2013-05-16 07:31:00,
2013-05-16 03:41:00,68.9,59.9,29.84,WSW,240,4.0,6.0,73,0.00,,,0.00,Wunderground v.1.15,2013-05-16 07:41:00,
2013-05-16 03:51:00,68.7,60.5,29.84,SSW,211,4.0,6.0,75,0.00,,,0.00,Wunderground v.1.15,2013-05-16 07:51:00,
2013-05-16 04:01:00,68.4,60.2,29.84,West,262,3.0,3.0,75,0.00,,,0.00,Wunderground v.1.15,2013-05-16 08:01:00,
2013-05-16 04:11:00,68.3,60.1,29.84,SSW,209,3.0,3.0,75,0.00,,,0.00,Wunderground v.1.15,2013-05-16 08:11:00,
2013-05-16 04:21:00,68.3,59.7,29.84,WSW,251,4.0,7.0,74,0.00,,,0.00,Wunderground v.1.15,2013-05-16 08:21:00,
2013-05-16 04:31:00,68.3,59.7,29.84,SW,229,4.0,4.0,74,0.00,,,0.00,Wunderground v.1.15,2013-05-16 08:31:00,
2013-05-16 04:41:00,68.0,59.0,29.83,SSW,200,4.0,4.0,73,0.00,,,0.00,Wunderground v.1.15,2013-05-16 08:41:00,
2013-05-16 04:51:00,67.7,59.1,29.83,WSW,240,3.0,5.0,74,0.00,,,0.00,Wunderground v.1.15,2013-05-16 08:51:00,
2013-05-16 05:01:00,67.5,58.5,29.84,SW,216,4.0,4.0,73,0.00,,,0.00,Wunderground v.1.15,2013-05-16 09:01:00,
2013-05-16 05:11:00,67.3,58.3,29.84,WSW,250,3.0,3.0,73,0.00,,,0.00,Wunderground v.1.15,2013-05-16 09:11:00,
2013-05-16 05:21:00,67.1,58.2,29.84,SW,221,3.0,3.0,73,0.00,,,0.00,Wunderground v.1.15,2013-05-16 09:21:00,
2013-05-16 05:31:00,66.8,57.9,29.84,South,191,3.0,3.0,73,0.00,,,0.00,Wunderground v.1.15,2013-05-16 09:31:00,
2013-05-16 05:51:00,66.5,57.6,29.85,SW,218,2.0,5.0,73,0.00,,,0.00,Wunderground v.1.15,2013-05-16 09:51:00,
2013-05-16 06:01:00,66.3,57.8,29.85,SW,226,3.0,4.0,74,0.00,,,0.00,Wunderground v.1.15,2013-05-16 10:01:00,
2013-05-16 06:11:00,66.2,57.7,29.85,West,259,2.0,4.0,74,0.00,,,0.00,Wunderground v.1.15,2013-05-16 10:11:00,
2013-05-16 06:21:00,66.2,57.7,29.86,WSW,252,3.0,3.0,74,0.00,,,0.00,Wunderground v.1.15,2013-05-16 10:21:00,
2013-05-16 06:31:00,66.2,57.7,29.86,SSW,212,3.0,3.0,74,0.00,,,0.00,Wunderground v.1.15,2013-05-16 10:31:00,
2013-05-16 06:41:00,66.1,57.6,29.86,SW,223,2.0,2.0,74,0.00,,,0.00,Wunderground v.1.15,2013-05-16 10:41:00,
2013-05-16 06:51:00,66.1,57.6,29.87,SW,223,2.0,2.0,74,0.00,,,0.00,Wunderground v.1.15,2013-05-16 10:51:00,
2013-05-16 07:01:00,66.0,57.5,29.87,SW,228,2.0,2.0,74,0.00,,,0.00,Wunderground v.1.15,2013-05-16 11:01:00,
2013-05-16 07:11:00,65.9,57.7,29.87,SSW,211,2.0,3.0,75,0.00,,,0.00,Wunderground v.1.15,2013-05-16 11:11:00,
2013-05-16 07:21:00,65.9,57.7,29.88,SW,226,1.0,1.0,75,0.00,,,0.00,Wunderground v.1.15,2013-05-16 11:21:00,
2013-05-16 07:31:00,65.9,58.1,29.88,SW,226,1.0,2.0,76,0.00,,,0.00,Wunderground v.1.15,2013-05-16 11:31:00,
2013-05-16 07:41:00,66.0,58.6,29.88,SW,227,2.0,2.0,77,0.00,,,0.00,Wunderground v.1.15,2013-05-16 11:41:00,
2013-05-16 07:51:00,64.9,59.3,29.88,SW,228,1.0,1.0,82,0.16,,,0.04,Wunderground v.1.15,2013-05-16 11:51:00,
2013-05-16 08:01:00,63.8,59.2,29.88,SW,228,0.0,0.0,85,0.04,,,0.04,Wunderground v.1.15,2013-05-16 12:01:00,
2013-05-16 08:11:00,63.5,59.6,29.89,SW,228,0.0,0.0,87,0.00,,,0.04,Wunderground v.1.15,2013-05-16 12:11:00,
2013-05-16 08:21:00,63.6,59.7,29.89,SSW,212,1.0,2.0,87,0.00,,,0.04,Wunderground v.1.15,2013-05-16 12:21:00,
2013-05-16 08:31:00,63.7,59.8,29.89,SSW,212,1.0,1.0,87,0.00,,,0.04,Wunderground v.1.15,2013-05-16 12:31:00,
2013-05-16 08:41:00,63.5,59.9,29.89,WSW,247,0.0,0.0,88,0.09,,,0.06,Wunderground v.1.15,2013-05-16 12:41:00,
2013-05-16 08:51:00,63.5,59.6,29.89,WSW,247,0.0,0.0,87,0.04,,,0.06,Wunderground v.1.15,2013-05-16 12:51:00,
2013-05-16 09:01:00,64.1,60.5,29.90,WSW,247,0.0,0.0,88,0.00,,,0.06,Wunderground v.1.15,2013-05-16 13:01:00,
2013-05-16 09:11:00,64.6,61.0,29.90,SW,225,0.0,0.0,88,0.00,,,0.06,Wunderground v.1.15,2013-05-16 13:11:00,
2013-05-16 09:21:00,65.1,61.1,29.90,SW,225,1.0,1.0,87,0.00,,,0.06,Wunderground v.1.15,2013-05-16 13:21:00,
2013-05-16 09:31:00,65.3,61.0,29.90,SW,225,1.0,1.0,86,0.00,,,0.06,Wunderground v.1.15,2013-05-16 13:31:00,
2013-05-16 09:41:00,66.4,62.1,29.90,SSW,211,2.0,4.0,86,0.00,,,0.06,Wunderground v.1.15,2013-05-16 13:41:00,
2013-05-16 09:51:00,67.1,62.1,29.90,SW,229,3.0,3.0,84,0.00,,,0.06,Wunderground v.1.15,2013-05-16 13:51:00,
2013-05-16 10:01:00,66.6,61.6,29.91,WSW,238,3.0,3.0,84,0.00,,,0.07,Wunderground v.1.15,2013-05-16 14:01:00,
2013-05-16 10:11:00,66.3,61.7,29.91,West,265,1.0,1.0,85,0.00,,,0.07,Wunderground v.1.15,2013-05-16 14:11:00,
2013-05-16 10:21:00,67.5,62.8,29.91,SW,232,1.0,1.0,85,0.00,,,0.07,Wunderground v.1.15,2013-05-16 14:21:00,
2013-05-16 10:31:00,68.8,63.1,29.91,SW,216,3.0,5.0,82,0.00,,,0.07,Wunderground v.1.15,2013-05-16 14:31:00,
2013-05-16 10:41:00,69.8,64.1,29.91,WSW,245,2.0,3.0,82,0.00,,,0.07,Wunderground v.1.15,2013-05-16 14:41:00,
2013-05-16 10:46:00,70.3,63.8,29.91,SW,231,2.0,3.0,80,0.00,,,0.07,Wunderground v.1.15,2013-05-16 14:46:00,
2013-05-16 11:01:00,71.0,64.2,29.92,WSW,245,3.0,3.0,79,0.00,,,0.07,Wunderground v.1.15,2013-05-16 15:01:00,
2013-05-16 11:11:00,70.4,63.6,29.92,West,266,3.0,3.0,79,0.00,,,0.07,Wunderground v.1.15,2013-05-16 15:11:00,
2013-05-16 11:21:00,70.6,64.1,29.92,NNW,348,2.0,2.0,80,0.00,,,0.07,Wunderground v.1.15,2013-05-16 15:21:00,
2013-05-16 11:31:00,71.5,64.6,29.92,NNE,19,3.0,3.0,79,0.00,,,0.07,Wunderground v.1.15,2013-05-16 15:31:00,
2013-05-16 11:41:00,71.7,64.1,29.92,West,267,3.0,4.0,77,0.00,,,0.07,Wunderground v.1.15,2013-05-16 15:41:00,
2013-05-16 11:51:00,71.8,64.6,29.92,West,269,2.0,2.0,78,0.00,,,0.07,Wunderground v.1.15,2013-05-16 15:51:00,
2013-05-16 12:01:00,71.7,64.5,29.92,SSW,205,2.0,2.0,78,0.00,,,0.07,Wunderground v.1.15,2013-05-16 16:01:00,
2013-05-16 12:11:00,71.5,64.3,29.92,SSW,205,1.0,1.0,78,0.00,,,0.07,Wunderground v.1.15,2013-05-16 16:11:00,
2013-05-16 12:21:00,72.1,65.2,29.92,SSW,205,0.0,0.0,79,0.00,,,0.07,Wunderground v.1.15,2013-05-16 16:21:00,
2013-05-16 12:31:00,72.6,65.0,29.92,SSW,205,1.0,2.0,77,0.00,,,0.07,Wunderground v.1.15,2013-05-16 16:31:00,
2013-05-16 12:41:00,72.7,64.3,29.92,SSW,205,1.0,1.0,75,0.00,,,0.07,Wunderground v.1.15,2013-05-16 16:41:00,
2013-05-16 12:51:00,73.0,65.0,29.93,West,281,2.0,2.0,76,0.00,,,0.07,Wunderground v.1.15,2013-05-16 16:51:00,
2013-05-16 13:01:00,72.8,65.5,29.93,West,281,2.0,3.0,78,0.00,,,0.07,Wunderground v.1.15,2013-05-16 17:01:00,
2013-05-16 13:06:00,72.7,65.4,29.93,WSW,242,3.0,3.0,78,0.00,,,0.07,Wunderground v.1.15,2013-05-16 17:06:00,
2013-05-16 13:21:00,72.6,65.0,29.92,WSW,240,3.0,5.0,77,0.00,,,0.07,Wunderground v.1.15,2013-05-16 17:21:00,
2013-05-16 13:31:00,73.9,66.2,29.91,WNW,293,2.0,3.0,77,0.00,,,0.07,Wunderground v.1.15,2013-05-16 17:31:00,
2013-05-16 13:41:00,73.9,65.9,29.91,WSW,254,4.0,4.0,76,0.00,,,0.07,Wunderground v.1.15,2013-05-16 17:41:00,
2013-05-16 13:46:00,73.8,65.4,29.92,West,260,5.0,8.0,75,0.00,,,0.07,Wunderground v.1.15,2013-05-16 17:46:00,
2013-05-16 14:01:00,73.3,65.3,29.93,SW,232,4.0,4.0,76,0.00,,,0.07,Wunderground v.1.15,2013-05-16 18:01:00,
2013-05-16 14:11:00,73.3,65.3,29.94,SW,234,4.0,4.0,76,0.00,,,0.07,Wunderground v.1.15,2013-05-16 18:11:00,
2013-05-16 14:21:00,73.6,65.9,29.94,WSW,253,4.0,5.0,77,0.00,,,0.07,Wunderground v.1.15,2013-05-16 18:21:00,
2013-05-16 14:31:00,74.1,66.4,29.93,SSW,202,4.0,4.0,77,0.00,,,0.07,Wunderground v.1.15,2013-05-16 18:31:00,
2013-05-16 14:41:00,73.9,66.6,29.94,SW,219,6.0,6.0,78,0.00,,,0.07,Wunderground v.1.15,2013-05-16 18:41:00,
2013-05-16 14:46:00,73.5,65.8,29.94,WSW,240,7.0,7.0,77,0.00,,,0.07,Wunderground v.1.15,2013-05-16 18:46:00,
2013-05-16 15:01:00,73.2,64.8,29.93,WSW,237,7.0,8.0,75,0.00,,,0.07,Wunderground v.1.15,2013-05-16 19:01:00,
2013-05-16 15:11:00,73.7,63.7,29.93,WSW,248,7.0,7.0,71,0.00,,,0.07,Wunderground v.1.15,2013-05-16 19:11:00,
2013-05-16 15:21:00,73.4,63.0,29.94,SSW,196,7.0,7.0,70,0.00,,,0.07,Wunderground v.1.15,2013-05-16 19:21:00,
2013-05-16 15:31:00,73.4,62.6,29.93,WSW,240,6.0,7.0,69,0.00,,,0.07,Wunderground v.1.15,2013-05-16 19:31:00,
2013-05-16 15:41:00,73.8,63.0,29.92,SSW,200,4.0,6.0,69,0.00,,,0.07,Wunderground v.1.15,2013-05-16 19:41:00,
2013-05-16 15:51:00,74.2,63.0,29.91,West,267,4.0,7.0,68,0.00,,,0.07,Wunderground v.1.15,2013-05-16 19:51:00,
2013-05-16 16:01:00,74.5,62.4,29.91,WSW,254,3.0,3.0,66,0.00,,,0.07,Wunderground v.1.15,2013-05-16 20:01:00,
2013-05-16 16:06:00,74.6,62.5,29.92,SW,234,3.0,3.0,66,0.00,,,0.07,Wunderground v.1.15,2013-05-16 20:06:00,
2013-05-16 16:21:00,75.3,64.8,29.92,West,260,4.0,5.0,70,0.00,,,0.07,Wunderground v.1.15,2013-05-16 20:21:00,
2013-05-16 16:26:00,75.2,64.3,29.92,SW,220,4.0,5.0,69,0.00,,,0.07,Wunderground v.1.15,2013-05-16 20:26:00,
2013-05-16 16:41:00,75.4,62.4,29.92,SW,234,4.0,4.0,64,0.00,,,0.07,Wunderground v.1.15,2013-05-16 20:41:00,
2013-05-16 16:51:00,75.1,63.0,29.92,South,188,3.0,3.0,66,0.00,,,0.07,Wunderground v.1.15,2013-05-16 20:51:00,
2013-05-16 17:01:00,74.7,63.0,29.92,WSW,244,3.0,3.0,67,0.00,,,0.07,Wunderground v.1.15,2013-05-16 21:01:00,
2013-05-16 17:06:00,74.0,62.8,29.92,SW,217,3.0,3.0,68,0.00,,,0.07,Wunderground v.1.15,2013-05-16 21:06:00,
2013-05-16 17:21:00,72.9,62.1,29.92,SSW,211,4.0,4.0,69,0.00,,,0.07,Wunderground v.1.15,2013-05-16 21:21:00,
2013-05-16 17:31:00,73.0,61.8,29.92,SSW,213,4.0,4.0,68,0.00,,,0.07,Wunderground v.1.15,2013-05-16 21:31:00,
2013-05-16 17:41:00,73.0,61.8,29.92,SW,236,3.0,3.0,68,0.00,,,0.07,Wunderground v.1.15,2013-05-16 21:41:00,
2013-05-16 17:51:00,72.8,61.2,29.92,SSW,193,4.0,4.0,67,0.00,,,0.07,Wunderground v.1.15,2013-05-16 21:51:00,
2013-05-16 18:01:00,72.5,61.3,29.92,WSW,242,4.0,4.0,68,0.00,,,0.07,Wunderground v.1.15,2013-05-16 22:01:00,
2013-05-16 18:11:00,72.6,61.8,29.92,WNW,289,3.0,4.0,69,0.00,,,0.07,Wunderground v.1.15,2013-05-16 22:11:00,
2013-05-16 18:21:00,72.2,61.5,29.92,SSW,200,4.0,4.0,69,0.00,,,0.07,Wunderground v.1.15,2013-05-16 22:21:00,
2013-05-16 18:31:00,71.3,61.4,29.92,SSW,194,3.0,4.0,71,0.00,,,0.07,Wunderground v.1.15,2013-05-16 22:31:00,
2013-05-16 18:41:00,70.9,61.8,29.92,SW,223,2.0,3.0,73,0.00,,,0.07,Wunderground v.1.15,2013-05-16 22:41:00,
2013-05-16 18:51:00,70.7,61.6,29.93,WSW,243,3.0,3.0,73,0.00,,,0.07,Wunderground v.1.15,2013-05-16 22:51:00,
2013-05-16 19:01:00,71.0,61.5,29.92,SSW,207,4.0,4.0,72,0.00,,,0.07,Wunderground v.1.15,2013-05-16 23:01:00,
2013-05-16 19:06:00,71.2,61.7,29.92,SW,220,4.0,4.0,72,0.00,,,0.07,Wunderground v.1.15,2013-05-16 23:06:00,
2013-05-16 19:21:00,71.2,62.1,29.92,West,270,2.0,2.0,73,0.00,,,0.07,Wunderground v.1.15,2013-05-16 23:21:00,
2013-05-16 19:31:00,70.9,61.8,29.92,SSW,200,3.0,3.0,73,0.00,,,0.07,Wunderground v.1.15,2013-05-16 23:31:00,
2013-05-16 19:36:00,70.7,62.0,29.92,SSW,196,3.0,5.0,74,0.00,,,0.07,Wunderground v.1.15,2013-05-16 23:36:00,
2013-05-16 19:51:00,69.5,60.8,29.93,SSW,198,2.0,2.0,74,0.00,,,0.07,Wunderground v.1.15,2013-05-16 23:51:00,
2013-05-16 19:56:00,69.2,60.9,29.93,SW,233,3.0,3.0,75,0.00,,,0.07,Wunderground v.1.15,2013-05-16 23:56:00,
2013-05-16 20:11:00,68.7,60.8,29.93,SSW,203,3.0,3.0,76,0.00,,,0.07,Wunderground v.1.15,2013-05-17 00:11:00,
2013-05-16 20:21:00,68.3,61.2,29.92,South,186,1.0,1.0,78,0.00,,,0.07,Wunderground v.1.15,2013-05-17 00:21:00,
2013-05-16 20:31:00,67.9,61.1,29.93,SW,220,1.0,1.0,79,0.00,,,0.07,Wunderground v.1.15,2013-05-17 00:31:00,
2013-05-16 20:41:00,67.6,61.2,29.93,SW,220,0.0,0.0,80,0.00,,,0.07,Wunderground v.1.15,2013-05-17 00:41:00,
2013-05-16 20:51:00,67.2,61.2,29.94,SW,220,0.0,0.0,81,0.00,,,0.07,Wunderground v.1.15,2013-05-17 00:51:00,
2013-05-16 21:01:00,66.6,61.3,29.94,SW,220,0.0,0.0,83,0.00,,,0.07,Wunderground v.1.15,2013-05-17 01:01:00,
2013-05-16 21:11:00,66.1,61.1,29.94,SW,220,0.0,0.0,84,0.00,,,0.07,Wunderground v.1.15,2013-05-17 01:11:00,
2013-05-16 21:21:00,65.6,61.3,29.95,SW,220,0.0,0.0,86,0.00,,,0.07,Wunderground v.1.15,2013-05-17 01:21:00,
2013-05-16 21:31:00,65.5,61.2,29.95,SW,220,0.0,0.0,86,0.00,,,0.07,Wunderground v.1.15,2013-05-17 01:31:00,
2013-05-16 21:41:00,65.0,61.0,29.96,SW,220,0.0,0.0,87,0.00,,,0.07,Wunderground v.1.15,2013-05-17 01:41:00,
2013-05-16 21:51:00,64.4,60.8,29.96,SW,220,0.0,0.0,88,0.00,,,0.07,Wunderground v.1.15,2013-05-17 01:51:00,
2013-05-16 22:01:00,64.0,60.7,29.97,SW,220,0.0,0.0,89,0.00,,,0.07,Wunderground v.1.15,2013-05-17 02:01:00,
2013-05-16 22:11:00,63.4,60.1,29.97,SW,220,0.0,0.0,89,0.00,,,0.07,Wunderground v.1.15,2013-05-17 02:11:00,
2013-05-16 22:21:00,62.9,59.9,29.97,SW,220,0.0,0.0,90,0.00,,,0.07,Wunderground v.1.15,2013-05-17 02:21:00,
2013-05-16 22:31:00,62.5,59.8,29.98,SW,220,0.0,0.0,91,0.00,,,0.07,Wunderground v.1.15,2013-05-17 02:31:00,
2013-05-16 22:36:00,62.6,59.9,29.98,SW,220,0.0,0.0,91,0.00,,,0.07,Wunderground v.1.15,2013-05-17 02:36:00,
2013-05-16 22:51:00,62.5,60.1,29.98,SW,220,0.0,0.0,92,0.00,,,0.07,Wunderground v.1.15,2013-05-17 02:51:00,
2013-05-16 23:01:00,62.5,60.1,29.98,SW,220,0.0,0.0,92,0.00,,,0.07,Wunderground v.1.15,2013-05-17 03:01:00,
2013-05-16 23:11:00,62.4,60.0,29.98,SW,220,0.0,0.0,92,0.00,,,0.07,Wunderground v.1.15,2013-05-17 03:11:00,
2013-05-16 23:16:00,62.3,59.9,29.98,SW,220,0.0,0.0,92,0.00,,,0.07,Wunderground v.1.15,2013-05-17 03:16:00,
2013-05-16 23:21:00,62.3,59.9,29.98,SW,220,0.0,0.0,92,0.00,,,0.07,Wunderground v.1.15,2013-05-17 03:21:00,
2013-05-16 23:31:00,62.0,59.6,29.98,SW,220,0.0,0.0,92,0.00,,,0.07,Wunderground v.1.15,2013-05-17 03:31:00,
2013-05-16 23:41:00,61.8,59.5,29.98,SW,220,0.0,0.0,92,0.00,,,0.07,Wunderground v.1.15,2013-05-17 03:41:00,
2013-05-16 23:51:00,61.4,59.1,29.98,SW,220,0.0,0.0,92,0.00,,,0.07,Wunderground v.1.15,2013-05-17 03:51:00,